Change the Weather History Date:

Wednesday, August 7, 2013

  Actual Average Record
Temperature  
Mean Temperature 82 °F -  
Max Temperature 91 °F 88 °F 97 °F (2007)
Min Temperature 75 °F 71 °F 69 °F (1998)
Cooling Degree Days 18    
Growing Degree Days 32 (Base 50)    
Moisture  
Dew Point 75 °F    
Average Humidity 84    
Maximum Humidity 100    
Minimum Humidity 56    
Precipitation  
Precipitation 0.00 in - - ()
Sea Level Pressure  
Sea Level Pressure 30.00 in    
Wind  
Wind Speed 5 mph (East)    
Max Wind Speed 9 mph    
Max Gust Speed -    
Visibility 10 miles    
Events      
Averages and records for this station are not official NWS values.
T = Trace of Precipitation, MM = Missing Value Source: NWS Daily Summary

Daily Weather History Graph

Daily Weather History Graph

Search for Another Location

Airport or City:

Trip Planner

Search our weather history database for the weather conditions in past years. The results will help you decide how hot, cold, wet, or windy it might be!

Date:

Astronomy

Aug. 07, 2013 Rise Set
Actual Time 6:53 AM EDT 8:22 PM EDT
Civil Twilight 6:28 AM EDT 8:48 PM EDT
Nautical Twilight 5:57 AM EDT 9:19 PM EDT
Astronomical Twilight 5:24 AM EDT 9:51 PM EDT
Moon 7:34 AM EDT (8/7) 8:38 PM EDT (8/7)
Length of Visible Light 14h 20m
Length of Day
13h 28m
New Moon, 1% of the Moon is Illuminated
Aug 7
New Moon
Aug 14
First Quarter
Aug 20
Full
Aug 28
Last Quarter
Sep 5
New

Hourly Weather History & Observations

Time (EDT) Temp. Heat Index Dew Point Humidity Pressure Visibility Wind Dir Wind Speed Gust Speed Precip Events Conditions
12:58 AM 77.7 °F - 76.3 °F 95% 29.99 in 10.0 mi ESE 3.5 mph - N/A   Clear
1:58 AM 76.5 °F - 76.1 °F 99% 29.97 in 10.0 mi East 4.6 mph - N/A   Clear
2:58 AM 76.3 °F - 76.3 °F 100% 29.96 in 10.0 mi ESE 4.6 mph - N/A   Clear
3:28 AM 75.2 °F - 75.2 °F 100% 29.95 in 10.0 mi East 4.6 mph - N/A   Partly Cloudy
3:46 AM 75.2 °F - 75.2 °F 100% 29.96 in 10.0 mi East 3.5 mph - N/A   Scattered Clouds
3:54 AM 75.2 °F - 75.2 °F 100% 29.96 in 9.0 mi East 2.3 mph - N/A   Mostly Cloudy
3:58 AM 75.9 °F - 75.9 °F 100% 29.96 in 9.0 mi ENE 2.3 mph - N/A   Mostly Cloudy
4:58 AM - - - N/A% - 9.0 mi East 3.5 mph - N/A   Overcast
5:04 AM - - - N/A% - 8.0 mi ESE 4.6 mph - N/A   Overcast
5:58 AM - - - N/A% - 8.0 mi East 4.6 mph - N/A   Overcast
6:50 AM - - - N/A% - 9.0 mi East 4.6 mph - N/A   Overcast
6:58 AM - - - N/A% - 10.0 mi East 5.8 mph - N/A   Overcast
7:14 AM - - - N/A% 29.99 in 10.0 mi ESE 5.8 mph - N/A   Overcast
7:58 AM 76.6 °F - 76.6 °F 100% 30.00 in 10.0 mi ESE 5.8 mph - N/A   Overcast
8:14 AM 77.0 °F - 77.0 °F 100% 30.01 in 10.0 mi East 4.6 mph - N/A   Overcast
8:52 AM 78.8 °F - 77.0 °F 94% 30.02 in 10.0 mi ESE 5.8 mph - N/A   Overcast
8:58 AM 78.3 °F - 77.5 °F 98% 30.02 in 10.0 mi ESE 5.8 mph - N/A   Overcast
9:04 AM 78.8 °F - 77.0 °F 94% 30.03 in 10.0 mi ESE 8.1 mph - N/A   Overcast
9:38 AM 78.8 °F - 77.0 °F 94% 30.03 in 10.0 mi ESE 5.8 mph - N/A   Mostly Cloudy
9:40 AM 78.8 °F - 77.0 °F 94% 30.03 in 10.0 mi ESE 5.8 mph - N/A   Mostly Cloudy
9:46 AM 78.8 °F - 77.0 °F 94% 30.03 in 10.0 mi ESE 5.8 mph - N/A   Mostly Cloudy
9:48 AM 78.8 °F - 77.0 °F 94% 30.03 in 10.0 mi Variable 4.6 mph - N/A   Mostly Cloudy
9:56 AM 80.6 °F 87.1 °F 77.0 °F 89% 30.04 in 10.0 mi ESE 4.6 mph - N/A   Mostly Cloudy
9:58 AM 80.6 °F 87.1 °F 77.0 °F 89% 30.04 in 10.0 mi ESE 3.5 mph - N/A   Mostly Cloudy
10:06 AM 80.6 °F 87.1 °F 77.0 °F 89% 30.03 in 10.0 mi Variable 5.8 mph - N/A   Mostly Cloudy
10:10 AM 80.6 °F 86.2 °F 75.2 °F 84% 30.03 in 10.0 mi ESE 4.6 mph - N/A   Mostly Cloudy
10:12 AM 80.6 °F 86.2 °F 75.2 °F 84% 30.03 in 10.0 mi ESE 5.8 mph - N/A   Mostly Cloudy
10:38 AM 82.4 °F 89.5 °F 75.2 °F 79% 30.03 in 10.0 mi SE 5.8 mph - N/A   Mostly Cloudy
10:50 AM 84.2 °F 92.3 °F 75.2 °F 74% 30.03 in 10.0 mi SE 8.1 mph - N/A   Mostly Cloudy
10:58 AM 84.0 °F 91.9 °F 75.0 °F 74% 30.02 in 10.0 mi ESE 8.1 mph - N/A   Scattered Clouds
11:58 AM 86.4 °F 94.6 °F 74.3 °F 67% 30.03 in 10.0 mi Variable 3.5 mph - N/A   Scattered Clouds
12:58 PM 87.4 °F 95.3 °F 73.4 °F 63% 30.02 in 10.0 mi East 1.2 mph - N/A   Scattered Clouds
1:58 PM 88.9 °F 98.6 °F 74.7 °F 63% 30.01 in 10.0 mi NE 5.8 mph - N/A   Mostly Cloudy
2:58 PM 89.6 °F 98.2 °F 73.4 °F 59% 29.98 in 10.0 mi East 5.8 mph - N/A   Scattered Clouds
3:55 PM 89.6 °F 99.8 °F 75.2 °F 62% 29.96 in 10.0 mi ENE 9.2 mph - N/A   Partly Cloudy
4:58 PM 89.2 °F 97.9 °F 73.8 °F 60% 29.96 in 10.0 mi East 5.8 mph - N/A   Clear
5:58 PM 90.1 °F 97.8 °F 72.7 °F 56% 29.95 in 10.0 mi ENE 5.8 mph - N/A   Partly Cloudy
6:58 PM 89.2 °F 96.9 °F 72.9 °F 58% 29.94 in 10.0 mi East 6.9 mph - N/A   Clear
7:58 PM 85.6 °F 93.8 °F 74.3 °F 69% 29.96 in 10.0 mi SSE 4.6 mph - N/A   Partly Cloudy
8:58 PM 81.1 °F 87.4 °F 75.4 °F 83% 29.97 in 10.0 mi ENE 4.6 mph - N/A   Partly Cloudy
9:58 PM 80.2 °F 84.6 °F 73.0 °F 79% 30.01 in 10.0 mi ESE 5.8 mph - N/A   Clear
10:58 PM 79.0 °F - 73.2 °F 82% 30.02 in 10.0 mi East 4.6 mph - N/A   Clear
11:58 PM 77.2 °F - 73.2 °F 88% 30.02 in 10.0 mi NE 3.5 mph - N/A   Clear